Weather History for Minot, ND

Change the Weather History Date:

Thursday, August 1, 2013

  Actual Average Record
Temperature  
Mean Temperature 66 °F 71 °F  
Max Temperature 77 °F 83 °F 99 °F (1989)
Min Temperature 54 °F 58 °F 33 °F (1923)
Cooling Degree Days 1 6  
Month to date cooling degree days 1 6  
Year to date cooling degree days 198 264  
Since 1 June cooling degree days 188 248  
Growing Degree Days 16 (Base 50)    
Moisture  
Dew Point 50 °F    
Average Humidity 64    
Maximum Humidity 89    
Minimum Humidity 38    
Precipitation  
Precipitation 0.00 in 0.07 in 0.45 in (1972)
Month to date precipitation 0.00 0.07  
Year to date precipitation 17.41 11.47  
Sea Level Pressure  
Sea Level Pressure 30.02 in    
Wind  
Wind Speed 7 mph (West)    
Max Wind Speed 16 mph    
Max Gust Speed 23 mph    
Visibility 10 miles    
Events      
T = Trace of Precipitation, MM = Missing Value Source: NWS Daily Summary

Daily Weather History Graph

Daily Weather History Graph

Search for Another Location

Airport:

Trip Planner

Search our weather history database for the weather conditions in past years. The results will help you decide how hot, cold, wet, or windy it might be!

Date:

Astronomy

Aug. 01, 2013 Rise Set
Actual Time 6:20 AM CDT 9:21 PM CDT
Civil Twilight 5:44 AM CDT 9:57 PM CDT
Nautical Twilight 4:56 AM CDT 10:44 PM CDT
Astronomical Twilight 3:58 AM CDT 11:42 PM CDT
Moon 1:56 AM CDT 5:34 PM CDT
Length of Visible Light 16h 13m
Length of Day
15h 00m
Waning Crescent, 23% of the Moon is Illuminated
Aug 1
Waning Crescent
Aug 6
New
Aug 14
First Quarter
Aug 20
Full
Aug 28
Last Quarter

Hourly Weather History & Observations

Time (CDT) Temp. Dew Point Humidity Pressure Visibility Wind Dir Wind Speed Gust Speed Precip Events Conditions
12:54 AM 55.9 °F 51.1 °F 84% 30.07 in 10.0 mi SW 9.2 mph - N/A   Clear
1:54 AM 54.0 °F 50.0 °F 86% 30.07 in 10.0 mi SW 6.9 mph - N/A   Clear
2:54 AM 54.0 °F 50.0 °F 86% 30.06 in 10.0 mi SW 8.1 mph - N/A   Clear
3:54 AM 54.0 °F 48.9 °F 83% 30.05 in 10.0 mi SW 10.4 mph - N/A   Clear
4:54 AM 54.0 °F 48.9 °F 83% 30.05 in 10.0 mi SW 8.1 mph - N/A   Clear
5:54 AM 55.0 °F 48.9 °F 80% 30.04 in 10.0 mi SW 9.2 mph - N/A   Clear
6:54 AM 55.9 °F 48.0 °F 75% 30.04 in 10.0 mi SW 8.1 mph - N/A   Clear
7:54 AM 61.0 °F 48.9 °F 64% 30.05 in 10.0 mi West 10.4 mph - N/A   Clear
8:54 AM 63.0 °F 50.0 °F 63% 30.06 in 10.0 mi WNW 6.9 mph - N/A   Clear
9:54 AM 66.0 °F 51.1 °F 59% 30.06 in 10.0 mi Variable 5.8 mph - N/A   Clear
11:54 AM 72.0 °F 52.0 °F 49% 30.04 in 10.0 mi Variable 5.8 mph - N/A   Clear
12:54 PM 73.0 °F 52.0 °F 48% 30.03 in 10.0 mi WNW 10.4 mph 16.1 mph N/A   Clear
1:54 PM 73.0 °F 52.0 °F 48% 30.01 in 10.0 mi WNW 6.9 mph - N/A   Partly Cloudy
2:54 PM 75.9 °F 50.0 °F 40% 30.00 in 10.0 mi West 10.4 mph - N/A   Partly Cloudy
3:54 PM 77.0 °F 51.1 °F 40% 29.99 in 10.0 mi NW 13.8 mph - N/A   Partly Cloudy
4:54 PM 75.0 °F 48.9 °F 40% 29.99 in 10.0 mi NNW 8.1 mph 19.6 mph N/A   Clear
5:54 PM 75.0 °F 48.0 °F 38% 29.98 in 10.0 mi NW 10.4 mph - N/A   Partly Cloudy
6:54 PM 73.9 °F 48.0 °F 40% 29.97 in 10.0 mi NW 6.9 mph - N/A   Partly Cloudy
7:54 PM 71.1 °F 50.0 °F 47% 29.96 in 10.0 mi NW 6.9 mph - N/A   Clear
8:54 PM 68.0 °F 52.0 °F 56% 29.96 in 10.0 mi NW 5.8 mph - N/A   Clear
9:54 PM 62.1 °F 53.1 °F 72% 29.98 in 10.0 mi NNW 5.8 mph - N/A   Clear
10:54 PM 57.9 °F 52.0 °F 81% 29.98 in 10.0 mi NNW 5.8 mph - N/A   Clear
11:54 PM 59.0 °F 53.1 °F 81% 29.99 in 10.0 mi Calm Calm - N/A   Partly Cloudy